Theta_e
339 341 344 346 345 346 336 333 339 340 341 342 342 342 342 342 342 342 342 342 342 342 342 340 337 335 337 340 342 342 342 342 339 335 337 338 338 337 335 333 333 333 334 336 335 335 336 337 336 336 336 336 336 336 337 337 337 338 338 338 338 337 336 337 338 338 337 337 336 334 332 332 328 327 331 331 330 327 326 332 336 337 333 331 332
340 342 345 345 345 345 336 334 339 339 340 341 341 341 342 342 342 342 342 342 342 342 342 342 339 339 340 341 342 342 342 342 337 335 338 339 339 337 334 334 335 334 334 335 335 335 335 336 336 335 335 336 335 335 336 336 337 338 338 337 336 335 333 333 336 336 336 335 333 330 330 329 326 324 325 324 324 322 324 329 334 336 329 330 331
341 343 344 344 345 344 336 334 339 339 340 341 340 341 341 342 343 342 343 342 342 342 342 342 341 342 342 342 342 342 342 341 337 336 340 340 339 336 335 335 335 336 336 335 334 333 334 336 335 334 335 335 335 335 336 337 337 336 334 333 333 332 329 329 330 331 331 329 330 334 334 331 325 323 323 321 322 322 323 327 329 331 327 326 326
342 344 343 345 345 344 336 335 339 339 340 340 339 340 341 342 343 342 343 342 342 342 342 342 342 342 342 343 343 342 342 341 339 340 340 341 340 338 338 337 336 337 337 336 333 332 334 335 335 334 335 335 335 335 336 336 334 332 330 329 328 327 324 324 325 325 325 326 333 337 338 337 329 322 323 322 322 323 324 327 327 327 326 324 324
343 343 342 345 345 343 337 336 339 339 339 339 338 340 341 342 343 343 343 341 342 342 342 342 342 342 342 342 342 342 341 341 341 341 340 340 340 339 339 338 337 337 337 336 333 333 334 335 334 334 335 335 336 335 336 335 331 329 328 327 328 327 326 325 324 323 325 330 335 336 335 337 335 326 322 322 321 326 326 326 325 323 323 322 327
343 342 343 344 345 344 338 337 339 338 339 338 339 340 342 342 343 343 342 342 342 342 342 342 342 342 342 342 342 342 341 341 341 340 339 340 341 340 338 337 338 339 338 336 333 334 334 335 335 334 335 335 335 335 336 334 331 329 330 330 331 331 330 329 326 326 331 335 336 335 334 334 337 329 321 323 320 324 326 321 320 319 319 320 330
342 342 343 343 345 344 339 338 338 339 338 337 338 340 342 343 343 342 342 342 342 342 342 342 342 342 342 342 342 342 342 341 340 340 340 341 341 339 333 334 336 337 337 336 334 333 334 336 336 335 335 335 335 335 335 334 333 332 332 332 332 332 332 331 329 330 335 337 336 334 335 333 336 329 319 323 321 321 321 320 321 319 318 319 327
342 342 344 343 345 344 340 337 339 339 338 337 339 341 342 342 342 342 342 342 342 342 342 342 342 342 342 342 342 341 341 340 340 340 341 340 339 334 328 328 330 330 333 335 334 334 335 336 337 336 336 336 336 336 335 334 333 332 332 332 332 332 332 332 331 334 337 337 336 334 334 334 335 330 321 321 321 321 319 325 329 321 320 318 322
341 343 343 343 345 344 340 337 339 339 338 339 340 342 342 342 342 342 342 342 342 342 342 342 342 342 342 341 341 340 340 340 341 341 340 339 335 330 329 329 330 328 330 335 336 335 336 336 337 337 337 336 336 334 333 332 332 332 332 333 333 333 332 332 332 336 339 336 336 335 335 335 335 334 324 321 321 320 319 329 334 327 324 319 319
342 344 343 343 345 343 339 337 338 338 339 340 341 342 342 342 342 341 342 342 342 342 342 342 342 341 341 341 341 340 340 340 340 339 339 338 333 330 331 332 334 332 331 335 336 335 337 337 337 338 337 335 333 332 332 332 332 333 333 332 332 332 332 331 334 338 338 335 335 333 333 334 337 335 326 323 322 321 320 325 329 325 325 321 320
342 344 343 343 345 342 337 336 337 338 340 341 341 342 342 342 342 342 342 342 342 342 342 342 342 341 341 341 340 340 340 340 339 338 338 337 332 328 327 330 333 333 332 335 336 336 337 337 338 337 335 332 332 332 332 332 332 333 333 333 331 331 331 332 337 337 336 335 335 334 333 335 338 333 327 326 324 323 322 322 323 322 323 321 322
342 343 342 344 344 341 337 335 336 339 341 341 342 342 342 342 342 341 342 342 342 342 342 342 342 341 341 341 340 340 339 339 338 337 337 335 332 327 325 328 332 332 332 335 336 336 337 337 336 333 331 331 332 332 331 332 332 334 334 333 331 330 330 333 338 335 334 335 334 336 335 337 337 330 327 328 326 325 324 324 324 323 322 322 322
342 342 342 344 343 340 337 335 337 340 342 342 342 342 342 342 341 341 342 342 341 341 341 341 341 341 341 340 340 339 337 337 337 336 335 333 330 326 325 329 333 332 331 333 335 336 335 334 331 329 329 331 332 332 331 332 332 334 334 334 331 330 330 332 336 334 334 335 335 336 335 337 336 330 327 329 328 327 326 326 325 324 323 323 323
341 342 342 343 343 339 336 336 339 342 342 342 343 342 342 341 341 341 341 341 341 341 341 340 340 340 340 339 337 334 332 331 331 328 326 325 324 324 324 327 332 333 332 332 333 333 331 329 328 328 330 330 331 331 331 331 332 334 333 333 332 331 333 334 334 335 335 335 336 335 335 337 335 331 329 328 328 328 328 328 327 325 325 324 324
341 342 341 342 343 339 337 337 339 342 343 343 343 342 341 340 341 341 340 341 341 340 340 340 340 339 337 334 330 326 323 322 322 320 318 318 319 322 323 326 330 332 332 332 333 333 329 327 327 329 330 330 331 331 331 331 332 333 332 331 333 331 333 336 334 334 335 335 335 335 335 336 333 332 331 329 328 328 328 328 328 327 326 325 325
342 341 341 342 342 340 339 337 338 341 342 343 342 341 341 340 341 340 340 341 340 340 339 339 338 335 330 326 323 321 321 321 320 317 315 315 316 320 323 325 329 330 330 331 332 331 328 326 328 329 329 330 331 330 331 331 332 332 331 329 329 330 330 334 335 333 334 333 334 334 335 335 333 332 332 331 330 329 328 328 328 328 328 327 326
342 340 340 340 341 340 340 339 338 339 341 342 341 341 341 341 341 340 340 340 339 338 338 336 333 328 326 324 323 322 322 321 316 312 311 313 315 319 322 323 327 329 329 329 329 329 327 326 327 328 329 330 330 330 330 330 331 331 332 330 327 328 328 331 335 334 334 333 333 334 335 335 333 332 332 332 331 330 329 329 330 330 329 329 329
341 340 339 340 340 339 340 340 339 340 341 340 340 341 341 341 340 340 340 339 338 337 334 331 328 328 328 327 326 323 323 323 318 313 311 312 313 318 321 322 325 328 329 329 329 328 326 326 326 327 327 328 328 329 328 329 330 330 331 331 328 329 328 331 335 334 335 335 334 335 336 334 332 332 333 332 332 332 330 330 334 334 333 332 332
339 339 339 339 339 339 339 340 340 341 342 340 340 341 341 341 340 340 339 338 337 333 330 329 329 330 329 329 326 323 324 326 325 321 317 318 320 318 318 320 323 326 327 328 329 328 327 326 326 326 326 327 327 327 327 327 328 329 330 329 330 332 331 333 335 332 334 336 335 336 335 333 332 332 333 333 332 332 331 331 335 336 334 334 334
339 339 339 339 339 339 339 339 340 340 341 341 341 341 340 340 339 339 338 337 334 330 329 330 330 330 331 330 328 328 329 329 330 329 327 328 327 321 316 317 319 322 324 326 327 328 327 327 326 326 325 326 326 326 326 326 327 328 329 329 330 333 333 334 334 333 334 335 336 337 334 332 332 333 333 333 333 333 332 331 335 336 335 334 334
339 339 339 339 338 339 339 340 341 340 341 342 342 342 340 339 339 338 338 335 332 330 332 333 332 332 332 331 331 334 335 333 333 333 333 333 331 328 324 320 318 317 319 321 324 326 327 327 326 325 325 325 324 324 324 323 326 328 329 328 329 333 334 335 334 334 335 335 337 336 333 332 332 333 333 333 332 333 332 332 334 335 334 334 335
339 339 339 339 338 339 339 340 340 340 341 342 343 342 340 340 340 339 337 334 333 333 335 336 337 335 333 333 335 336 335 335 337 336 336 336 335 334 333 329 327 324 320 317 318 321 324 326 325 324 325 324 323 326 327 325 325 327 328 328 330 333 334 335 335 334 334 336 338 335 333 332 332 332 333 333 333 334 335 335 336 335 335 335 335
339 339 338 338 338 339 340 339 340 340 341 342 343 342 341 341 341 340 338 337 337 337 338 338 338 337 336 337 337 337 337 338 339 337 336 336 335 334 333 333 333 332 329 323 319 317 318 320 321 323 325 325 326 329 331 330 329 329 329 330 332 334 334 335 335 335 336 337 337 335 334 333 333 333 333 333 333 336 338 337 336 335 334 333 333
340 338 338 338 338 338 339 339 339 340 341 342 342 342 342 341 342 341 339 339 338 338 339 338 338 338 338 338 338 339 340 340 340 338 337 338 337 335 334 334 334 334 333 333 329 323 319 318 320 326 330 330 331 331 330 332 332 331 332 333 334 335 336 336 336 336 337 337 337 335 335 335 334 334 334 334 334 334 335 334 334 333 333 333 333
340 338 337 338 338 337 338 339 339 340 341 341 342 342 342 342 341 341 339 338 337 337 338 338 338 338 338 338 339 339 340 340 340 340 340 340 339 338 337 337 338 336 335 337 335 331 329 327 327 331 333 332 332 332 331 332 332 332 333 335 336 336 337 337 338 338 337 338 338 335 336 335 335 335 335 335 334 334 334 334 334 334 334 333 333
339 338 337 338 337 337 338 339 339 340 341 341 341 342 342 341 341 340 339 337 337 337 338 337 338 338 338 339 339 339 340 340 340 340 340 340 339 340 340 339 340 340 339 339 338 336 335 333 332 333 332 332 333 333 334 333 334 335 336 337 338 338 337 337 338 339 338 337 337 335 335 335 335 336 336 336 335 335 336 335 335 335 335 334 334
339 339 337 337 338 338 338 338 340 341 341 341 341 341 341 341 340 339 338 337 337 338 338 337 338 339 339 340 340 340 340 340 340 339 339 340 340 339 339 340 340 341 340 340 339 339 338 336 335 335 334 335 335 336 337 337 337 337 337 338 338 339 338 338 338 339 339 336 334 333 334 334 335 336 336 336 336 336 336 336 336 336 336 335 335
339 339 338 337 338 338 339 339 339 340 341 341 341 341 340 340 340 338 337 337 337 338 338 337 338 339 340 340 340 340 341 341 340 339 339 340 339 339 339 340 340 340 340 341 341 340 339 339 339 338 338 338 338 338 338 338 338 338 338 337 338 338 338 338 337 338 338 335 333 331 332 333 334 335 335 335 335 335 336 336 335 335 335 335 335
339 339 338 337 338 339 339 339 340 340 341 341 341 340 340 340 339 338 337 337 337 338 338 338 339 340 340 340 340 341 341 341 341 340 339 339 339 339 339 339 340 340 340 341 341 341 340 340 339 339 338 338 338 338 338 338 337 337 337 337 337 337 337 336 336 336 335 333 331 330 330 331 332 333 333 334 334 333 334 334 334 334 334 334 334
340 340 338 337 338 340 340 340 340 340 340 340 340 340 340 339 339 338 337 337 337 338 338 338 339 340 340 340 340 341 341 342 342 340 339 340 340 339 339 339 339 339 340 340 341 341 340 339 339 338 338 337 337 337 337 336 336 335 335 336 336 335 334 333 333 333 333 332 331 329 328 328 329 331 331 332 331 330 330 331 332 332 333 332 332
340 340 338 337 338 339 339 340 340 340 340 340 340 340 340 339 339 338 337 337 338 338 339 339 339 340 340 340 341 341 341 342 342 341 340 340 340 339 339 339 339 339 339 340 340 340 339 339 338 337 337 337 336 336 336 335 334 334 334 334 333 332 330 330 330 330 330 329 329 329 327 325 324 325 327 328 328 328 328 328 329 329 329 329 329
340 339 338 337 338 339 339 339 340 340 340 339 340 340 339 339 339 338 337 338 339 339 339 339 339 340 340 341 342 341 341 341 341 340 340 339 339 339 338 339 339 338 338 339 339 338 338 338 337 336 336 335 335 334 335 334 334 333 332 331 329 328 327 327 327 327 327 327 327 327 327 325 322 320 320 321 321 321 320 321 322 323 324 325 326
340 339 338 338 338 338 338 340 340 340 340 339 340 339 339 339 338 337 338 339 339 339 339 339 339 340 340 341 342 341 341 341 339 339 339 339 339 338 338 338 338 338 338 338 338 337 337 336 336 335 335 334 334 334 333 332 332 331 329 327 326 325 324 324 324 324 324 324 324 324 325 325 324 322 318 317 316 315 314 313 314 315 317 318 320
339 339 338 338 338 338 338 339 340 339 340 340 339 339 339 338 338 337 338 339 339 339 339 339 339 340 341 342 342 342 341 340 339 338 339 339 338 338 337 338 337 337 337 337 336 336 335 335 334 334 334 333 333 333 332 331 330 328 326 324 323 323 322 322 321 321 321 321 321 321 321 322 322 322 320 316 314 314 313 313 312 311 311 311 312
340 340 339 338 337 337 338 339 339 339 339 339 339 339 338 338 338 338 339 339 339 339 339 339 339 340 341 342 342 341 340 339 338 338 338 338 338 337 337 337 337 336 336 336 335 334 334 334 333 333 333 332 332 332 331 330 328 326 324 322 321 320 320 319 319 318 318 318 318 318 318 317 317 317 317 314 312 310 308 309 308 307 306 306 306
341 341 339 338 337 337 338 339 339 339 339 339 339 339 339 338 337 338 339 339 339 338 339 339 339 340 341 342 341 340 339 338 338 338 338 337 337 336 336 336 336 335 335 334 333 333 333 332 331 331 332 331 331 332 330 328 325 322 321 320 318 318 318 317 317 316 316 316 315 315 314 314 313 312 312 311 309 307 303 302 302 302 301 301 302
342 341 340 338 337 337 338 339 339 339 339 338 339 339 338 337 338 339 339 339 338 338 338 339 339 340 341 341 340 338 338 338 338 337 337 336 336 335 335 335 334 334 334 333 333 332 332 332 329 328 329 329 329 331 329 325 322 320 318 317 316 315 315 315 314 314 314 314 313 312 312 311 310 310 309 308 306 306 303 300 299 300 298 298 299
342 341 340 338 338 337 338 339 339 339 338 339 339 339 338 337 338 339 339 339 339 338 339 338 339 340 340 339 338 338 337 338 337 337 336 335 335 335 334 334 333 333 333 333 332 331 331 330 328 325 324 327 329 330 328 323 320 318 316 314 313 312 312 312 312 312 312 312 311 311 310 309 308 308 308 306 305 304 304 302 302 303 301 297 297
342 341 340 339 338 338 338 339 339 339 339 339 339 338 338 338 338 339 338 339 339 339 339 338 339 340 339 338 337 337 336 336 336 336 336 335 334 334 334 333 333 333 333 332 331 330 329 327 326 323 321 324 328 329 326 321 318 315 313 311 311 310 310 310 310 310 310 310 310 309 309 308 307 306 306 306 305 304 304 304 304 305 304 299 298
341 341 340 339 338 338 339 339 338 339 339 339 338 337 338 337 338 338 338 338 339 339 338 337 339 339 337 337 336 336 336 336 336 335 335 334 334 333 333 332 332 332 332 332 330 329 327 325 324 323 322 323 327 328 324 320 318 315 312 311 309 308 308 308 309 309 309 309 308 308 308 307 307 306 306 306 305 305 304 305 304 304 305 303 302
341 341 340 339 338 338 338 339 338 338 339 338 337 337 337 337 337 337 337 337 338 338 337 336 337 337 335 336 335 335 335 335 335 335 334 334 333 333 332 332 331 330 329 329 327 325 324 322 320 320 322 323 326 327 324 322 320 318 317 315 312 309 307 307 308 308 308 308 307 307 307 307 307 306 306 306 305 305 304 304 304 304 305 304 305
341 340 340 339 338 338 338 338 337 337 337 337 336 336 337 337 336 337 337 337 336 336 336 335 335 335 335 334 334 334 334 334 334 334 333 332 332 332 331 330 328 327 325 324 324 323 322 321 319 318 318 320 324 326 325 324 324 323 322 321 318 312 308 307 307 307 307 307 307 307 306 307 307 306 306 306 305 305 304 304 304 304 305 304 304
341 340 340 340 338 337 337 337 336 336 336 336 336 336 337 337 336 336 336 335 335 334 334 333 333 334 334 334 334 334 334 333 333 332 331 330 330 330 328 327 325 324 323 322 322 323 321 320 319 318 316 316 319 322 324 325 325 325 324 324 323 319 314 311 309 307 306 306 307 307 307 307 307 306 305 305 305 305 304 303 304 303 304 304 303
341 339 339 338 337 336 337 337 335 334 335 335 335 336 337 337 337 336 336 334 333 332 332 332 334 334 334 334 333 333 332 331 330 329 328 328 327 327 325 324 321 320 321 321 321 321 321 319 318 318 317 314 315 317 318 320 323 326 326 323 323 322 319 315 311 308 306 306 306 306 307 306 306 305 304 304 304 304 304 303 303 303 303 303 303
339 337 338 336 335 336 336 335 333 331 334 335 334 337 337 335 335 333 333 333 331 330 330 331 333 333 332 332 331 331 330 328 327 326 326 325 324 323 322 320 317 316 318 319 318 318 318 317 316 317 317 315 312 312 312 314 316 318 320 321 321 319 316 313 310 307 305 305 304 304 305 305 305 304 303 302 302 303 303 303 303 303 302 302 302
335 335 336 335 334 334 333 333 332 331 334 335 335 336 335 334 333 332 331 331 330 330 329 330 330 330 329 329 328 327 326 325 324 324 323 322 321 320 318 316 313 313 315 317 316 316 316 315 315 316 316 315 311 309 308 308 308 308 310 313 316 318 315 313 311 309 306 305 305 304 304 304 304 303 302 302 302 302 303 302 302 302 302 302 302
334 334 335 334 333 332 332 333 333 333 335 335 335 335 334 333 333 332 331 330 330 330 329 330 330 330 328 326 325 324 323 322 322 321 321 320 318 316 314 312 311 312 314 316 315 315 314 314 315 315 315 315 313 310 308 307 306 306 306 305 307 311 313 313 313 311 309 307 305 304 304 303 303 303 303 302 302 302 302 302 302 302 302 302 302
334 335 335 335 334 333 334 335 334 334 335 335 334 334 333 332 333 332 331 331 330 329 329 330 329 327 326 323 322 322 321 320 320 319 319 317 315 312 310 310 311 313 314 314 314 313 312 311 311 311 313 315 314 312 310 308 306 307 307 306 305 307 308 309 310 310 310 310 307 305 305 305 304 303 303 302 302 302 302 302 302 301 302 302 302
335 336 336 335 334 334 335 336 335 335 335 335 335 334 333 332 332 331 331 330 329 328 329 330 327 324 323 322 321 321 320 319 319 318 317 316 314 311 310 312 313 313 313 312 312 311 310 308 307 307 308 310 311 311 310 309 309 308 309 309 309 308 307 308 308 308 309 308 306 306 307 307 307 304 303 303 303 303 302 302 302 301 301 302 301
335 336 336 335 334 334 335 335 335 335 335 335 335 334 333 333 331 331 330 329 328 327 327 327 325 322 322 322 321 321 320 319 318 317 316 315 313 312 312 313 313 312 311 310 309 307 305 304 304 305 306 307 308 308 308 308 309 309 309 309 309 308 307 308 308 307 308 308 307 306 305 306 308 305 303 303 303 303 302 302 301 301 301 301 301
336 336 336 336 335 334 335 336 336 336 335 335 335 334 333 332 331 331 330 328 328 328 326 325 323 322 322 322 322 321 320 319 318 317 316 314 313 313 313 312 312 312 310 309 308 306 304 303 303 305 306 306 306 307 307 307 307 307 307 307 307 307 307 306 307 306 307 308 308 307 305 305 306 304 303 303 303 302 302 301 301 301 301 301 301
Wind_Speed
14 17 19 21 20 20 20 18 17 16 15 15 15 15 15 15 15 16 16 16 16 15 14 14 16 17 18 17 16 15 15 14 13 13 13 12 12 11 11 11 11 10 10 10 10 10 12 13 12 12 12 12 12 13 11 11 13 12 10 9 10 11 10 12 12 10 10 9 7 8 10 8 8 9 9 8 8 9 11 12 12 9 7 9 10
16 17 19 20 20 19 20 19 17 16 15 15 15 14 15 15 15 15 15 15 15 15 15 15 15 16 16 16 16 15 14 13 13 13 12 11 11 10 11 11 11 10 9 9 9 10 11 13 13 12 12 12 12 12 11 11 12 11 9 9 9 9 9 9 10 9 8 7 8 10 11 10 10 10 9 9 9 10 11 11 11 9 6 8 8
18 17 19 19 20 19 20 19 17 16 15 15 15 14 15 16 15 15 15 15 15 16 15 15 15 15 15 15 15 15 14 13 12 12 11 10 10 10 11 11 10 10 9 8 8 9 12 13 13 13 12 13 13 13 13 12 11 10 10 9 8 8 8 8 7 7 7 7 9 11 12 12 11 11 11 11 10 10 11 10 10 10 8 9 9
18 18 18 19 19 19 20 18 17 16 15 15 15 15 15 16 15 15 15 15 16 16 16 16 15 15 14 14 14 15 14 13 12 11 11 10 10 12 12 11 10 9 9 8 8 10 12 13 13 13 12 13 14 14 13 12 11 11 11 11 10 9 9 9 8 7 8 9 13 11 7 8 10 12 12 11 10 10 11 11 9 9 10 10 10
17 18 18 19 18 18 20 18 17 16 16 15 15 16 15 16 15 15 15 15 16 16 16 15 15 14 14 14 13 14 14 13 12 11 11 10 11 12 12 11 9 8 8 9 10 12 13 13 14 13 13 14 14 14 13 12 13 13 12 12 12 12 11 11 10 11 12 14 15 11 6 6 6 11 11 11 11 10 11 10 8 8 8 9 10
17 18 18 19 17 17 19 18 16 16 16 15 16 16 16 16 15 16 16 16 16 16 16 15 15 14 14 13 13 13 12 12 12 11 11 10 11 11 11 10 9 9 10 11 11 12 13 13 14 14 14 14 14 14 13 12 13 12 11 11 10 10 11 10 11 11 13 14 13 8 6 6 6 9 10 11 11 10 9 8 8 8 9 10 9
17 17 18 18 17 17 19 18 16 17 16 16 17 17 16 15 16 16 16 16 16 16 15 15 14 14 13 13 12 12 12 12 12 11 10 10 11 10 8 8 8 9 11 12 11 12 13 14 13 13 14 14 14 13 12 11 11 10 10 10 9 9 9 9 10 11 12 10 7 5 6 7 6 7 10 10 10 10 8 9 10 9 9 10 8
16 16 17 17 17 18 19 18 17 16 16 17 18 17 16 16 16 16 16 16 16 15 15 14 14 13 13 12 12 11 12 12 11 10 9 9 9 7 7 7 7 7 9 11 12 12 13 13 13 13 14 13 13 12 12 12 11 11 10 10 9 8 8 7 8 11 13 8 4 5 6 6 7 7 10 10 10 10 9 10 11 11 10 10 9
15 16 16 16 16 18 19 18 17 16 17 18 17 16 16 16 16 15 16 15 15 15 14 14 13 13 12 12 11 11 12 11 10 9 8 7 6 6 8 8 8 7 8 11 12 12 12 13 13 13 13 13 12 12 13 12 12 11 11 10 9 8 8 7 7 9 8 6 5 6 5 5 7 6 9 11 10 9 9 8 6 8 9 10 9
15 15 15 16 16 19 20 19 18 17 18 18 17 16 16 16 16 16 15 14 14 14 14 13 12 12 12 11 11 11 10 9 9 8 6 6 6 7 9 9 9 9 9 11 12 11 12 12 12 12 12 12 12 13 13 12 11 11 11 10 9 8 7 7 9 8 5 4 6 7 8 8 7 6 8 11 10 9 9 8 4 3 6 9 10
15 15 14 15 17 19 20 19 18 17 18 18 17 16 16 16 16 15 14 14 14 13 13 12 12 12 11 11 10 10 9 8 8 7 6 5 6 7 9 10 9 10 10 11 11 11 11 11 12 11 10 11 12 12 11 11 10 10 11 10 9 8 7 7 7 6 4 4 5 5 7 9 7 5 8 11 10 9 9 8 7 7 7 9 10
15 15 14 16 18 20 20 19 19 18 18 17 16 16 17 16 16 15 14 14 13 13 13 12 11 11 10 10 9 9 8 8 7 7 6 5 5 7 9 10 10 10 10 10 10 11 11 10 10 9 9 9 10 10 10 10 10 10 10 10 10 8 7 7 5 2 4 4 5 4 4 6 5 5 8 10 9 9 9 8 9 8 8 9 9
15 15 15 17 17 20 20 19 20 18 17 17 16 16 16 16 16 15 14 14 13 12 12 11 11 10 9 9 8 7 7 7 6 6 5 5 6 8 9 10 11 10 9 9 9 10 11 10 10 9 8 8 8 8 9 9 9 9 10 10 10 10 9 8 5 2 4 3 4 4 3 4 3 6 8 8 8 8 8 8 8 8 9 9 9
16 16 16 16 16 20 20 19 21 18 17 17 16 17 16 16 16 15 14 14 13 12 12 11 11 10 9 7 7 6 6 6 6 5 4 5 6 8 10 10 10 10 9 9 9 10 10 9 9 8 7 7 7 7 7 7 8 8 9 9 9 10 9 7 5 3 3 3 3 2 3 3 3 6 7 7 7 7 7 8 8 8 9 10 10
16 16 16 16 16 19 19 20 20 18 17 17 17 17 16 17 16 15 15 14 13 13 12 11 10 9 8 7 6 5 6 6 5 5 5 5 7 9 10 10 9 10 9 9 9 8 9 9 8 7 6 6 5 5 6 6 6 7 8 9 8 8 8 6 4 4 3 2 2 2 2 2 4 6 6 6 6 6 7 8 8 8 9 10 10
15 16 16 16 17 18 19 19 19 19 18 17 17 16 16 16 16 15 15 14 13 13 12 11 10 9 8 7 7 7 6 6 6 5 6 6 7 9 10 10 9 9 9 8 8 7 8 8 7 7 6 5 4 4 4 5 5 5 6 7 7 7 7 7 4 4 3 3 2 3 3 3 6 6 6 6 7 7 7 8 9 9 10 10 11
15 16 15 16 17 19 18 17 18 19 18 17 16 16 16 16 15 15 14 14 13 13 12 11 10 9 9 8 8 7 6 7 7 7 7 8 8 9 9 10 10 9 9 8 7 7 7 7 6 6 5 4 3 2 2 2 3 3 3 4 6 5 6 7 4 3 4 3 3 3 3 4 6 6 6 7 7 8 8 9 9 10 10 10 11
15 15 15 16 17 18 18 17 18 18 17 17 16 16 16 15 15 14 14 13 13 12 12 11 10 10 9 8 8 7 8 8 9 9 9 9 9 10 10 9 9 9 9 8 7 7 6 6 6 5 5 4 3 2 1 0 0 1 1 2 5 4 5 6 3 3 3 3 3 3 3 4 6 7 7 7 7 8 9 9 9 9 10 11 11
14 14 14 15 17 17 17 17 18 17 16 16 16 16 15 14 14 13 13 13 12 12 11 10 10 9 9 9 8 8 9 10 11 11 11 10 9 8 9 9 8 8 8 8 7 7 6 6 6 5 5 4 3 2 2 1 1 2 2 3 4 4 5 5 3 3 3 3 4 4 3 5 7 7 8 8 8 8 9 10 8 9 11 12 12
13 14 15 15 16 16 17 17 17 18 17 16 16 15 14 14 13 13 13 12 12 12 11 10 10 9 9 9 9 9 8 9 10 10 10 9 8 8 8 8 7 7 7 7 7 7 6 6 6 6 5 5 4 3 3 3 3 3 3 4 4 4 4 4 3 4 3 3 4 4 5 7 7 7 8 8 8 8 9 10 9 10 13 14 14
14 14 15 16 16 16 16 17 17 18 17 17 16 14 14 15 14 14 13 12 12 11 10 9 9 9 9 9 9 8 7 7 7 7 8 7 7 8 8 8 7 7 6 6 6 6 6 6 6 5 5 5 5 4 4 4 4 3 4 4 4 4 3 4 4 4 4 4 4 5 7 7 7 7 7 7 7 8 9 9 9 12 15 16 16
15 15 16 16 17 16 16 17 17 17 17 17 16 15 15 14 14 13 13 12 11 10 9 8 8 8 8 8 7 7 7 6 6 7 6 5 6 8 8 8 8 7 6 5 4 5 5 5 5 4 5 5 4 4 4 4 3 3 3 3 3 3 3 4 4 5 5 4 5 6 7 7 8 8 7 6 6 6 7 8 10 12 15 18 17
16 16 17 17 17 17 17 17 17 18 17 16 15 16 16 15 15 14 13 12 10 9 9 8 8 8 7 7 7 7 7 6 6 6 6 6 6 7 7 7 8 7 7 7 6 4 5 4 4 4 4 4 4 5 5 4 2 1 1 2 2 3 3 4 4 5 4 5 6 6 7 7 8 8 8 6 6 6 6 8 10 12 15 17 17
17 17 17 18 17 17 17 17 17 18 17 15 15 16 16 16 15 14 13 12 11 10 9 9 7 7 7 7 7 6 6 5 5 5 5 5 4 5 6 5 6 6 8 8 6 6 5 5 5 4 3 3 3 3 3 3 1 1 1 2 3 3 4 4 4 5 4 6 5 5 6 8 8 8 8 8 7 7 6 8 9 11 13 15 16
17 16 17 18 17 17 18 17 18 18 17 15 14 15 16 14 14 13 12 11 11 10 9 8 7 7 7 6 6 5 5 5 5 5 4 3 3 4 4 3 3 4 5 5 5 4 4 4 4 3 2 2 1 1 0 0 1 1 2 3 3 4 4 4 5 5 6 6 4 5 7 8 8 8 8 8 8 8 8 8 8 9 10 11 12
17 16 16 18 17 17 18 17 18 18 17 15 15 15 15 13 13 12 11 10 10 11 9 9 8 8 7 6 6 5 4 4 4 4 3 2 3 4 4 3 3 3 3 3 4 4 3 3 3 2 1 1 1 0 0 1 2 2 3 3 4 4 5 4 5 5 6 8 7 7 7 7 7 8 8 8 9 9 9 10 9 9 9 10 10
16 15 16 17 18 17 17 17 18 18 16 15 15 14 14 12 12 12 11 11 11 10 9 9 8 8 8 7 6 5 4 4 4 4 3 2 2 3 3 3 3 3 3 3 3 3 3 3 2 2 2 1 1 1 1 2 3 3 3 4 4 5 5 5 5 5 6 11 11 9 8 7 7 7 8 9 9 10 10 10 9 9 9 9 9
15 15 15 16 18 18 17 17 17 17 16 15 14 13 13 13 12 12 11 11 11 10 9 9 8 7 7 6 5 4 4 3 4 4 3 2 2 2 2 3 3 3 3 3 3 2 2 2 2 2 1 1 1 2 2 2 3 3 3 4 5 5 5 5 5 6 7 11 12 11 9 7 6 6 7 9 9 9 10 11 10 10 11 10 10
14 15 16 17 18 19 18 18 17 16 16 15 14 13 13 13 13 12 11 11 10 9 9 8 7 6 6 6 5 4 3 3 3 3 3 3 2 2 2 3 3 3 3 3 3 2 2 2 2 1 1 1 2 2 2 2 3 4 4 4 5 5 5 5 5 5 7 10 11 11 8 7 6 6 6 7 6 6 7 9 10 11 12 12 11
14 15 16 17 18 19 19 18 18 16 16 15 14 13 13 13 12 12 11 11 10 9 9 7 6 5 5 5 4 4 3 3 2 3 3 3 3 3 3 3 3 3 3 4 3 3 2 3 2 2 2 2 2 2 2 3 3 4 4 5 5 6 6 6 6 6 6 8 9 10 9 8 7 6 5 5 4 5 5 5 5 6 9 12 12
15 15 15 17 19 19 18 18 18 16 15 14 13 13 13 13 12 11 11 11 10 9 9 7 6 5 5 4 4 4 3 2 2 2 3 4 4 3 3 4 4 4 4 4 4 3 3 4 4 3 3 3 3 3 3 3 4 4 5 6 6 6 7 7 7 8 7 7 7 8 10 10 10 8 7 6 6 6 6 5 3 3 4 8 10
15 16 15 16 19 19 18 18 18 17 16 14 13 12 13 13 13 11 11 11 11 10 8 7 6 5 5 5 4 3 3 2 2 2 3 4 4 4 4 5 5 5 5 5 4 4 4 4 4 4 3 3 3 3 3 4 4 5 6 7 7 7 8 8 8 9 9 8 6 6 8 10 11 11 9 8 8 8 8 8 8 7 6 7 8
14 15 15 16 19 19 18 18 18 17 17 16 14 13 13 14 13 12 11 11 11 9 8 7 6 5 5 5 4 3 3 3 3 3 4 5 5 5 5 5 5 5 5 5 4 4 3 3 3 3 3 2 2 3 3 4 4 6 7 7 8 8 8 9 9 10 10 9 7 7 7 7 8 10 10 10 9 9 10 11 11 11 10 9 8
14 15 16 18 19 19 19 19 18 18 17 16 15 14 14 14 13 12 12 11 10 9 8 7 6 5 5 4 4 4 4 4 4 4 4 5 5 5 6 5 5 5 5 5 4 4 4 3 2 2 2 2 2 2 3 4 5 7 8 8 9 9 9 9 10 10 9 9 8 8 8 7 7 8 9 11 11 11 11 12 13 13 12 12 11
15 16 18 20 20 19 19 19 19 18 17 16 15 15 15 15 13 12 12 10 9 8 7 6 5 5 5 4 5 5 5 5 5 5 5 5 5 5 5 5 5 5 5 4 4 4 3 3 3 2 2 2 2 3 3 5 8 9 9 9 10 9 10 10 10 9 9 9 9 9 9 9 9 9 9 10 12 13 13 12 13 13 13 12 12
16 17 19 20 20 19 18 18 19 19 18 16 15 15 15 15 14 12 11 10 8 8 7 6 6 6 5 5 5 6 6 6 5 5 5 5 5 6 5 5 4 4 4 4 4 4 3 2 3 3 1 1 3 4 5 8 10 10 10 10 10 9 10 10 10 9 9 9 9 9 10 10 10 10 10 10 10 12 13 13 13 13 14 14 13
16 17 20 21 20 19 19 18 19 19 18 17 15 14 14 15 14 11 9 8 8 7 7 6 6 5 5 6 6 6 6 6 6 6 6 5 5 5 5 4 4 4 4 4 3 3 2 2 3 3 2 1 4 6 8 10 11 11 11 11 10 10 10 10 10 9 10 10 9 9 10 10 10 10 10 11 11 12 13 14 15 15 15 14 14
17 17 19 20 20 20 19 18 19 19 17 16 15 14 14 14 12 10 9 8 7 7 6 6 6 5 5 6 7 7 7 7 6 6 6 5 5 5 4 4 4 4 3 3 3 2 2 2 2 3 3 3 5 7 9 11 12 12 12 12 12 11 11 10 10 9 9 9 9 9 9 9 10 10 10 11 12 12 13 14 14 14 15 15 15
18 17 19 20 20 19 19 18 19 19 16 16 16 14 14 13 11 10 9 8 7 6 6 6 5 5 5 7 7 7 7 6 6 6 6 6 5 4 3 3 3 3 2 2 2 2 2 2 2 4 5 5 6 8 10 12 13 14 14 14 14 13 12 11 10 9 9 9 8 8 8 9 10 10 10 10 11 12 13 13 13 12 13 15 17
18 18 20 20 20 20 20 20 19 18 16 15 16 15 13 13 12 11 10 9 7 6 6 6 5 5 6 6 7 7 7 7 7 6 6 6 4 3 3 3 3 3 2 1 1 1 2 3 4 4 6 7 8 9 11 13 14 14 14 15 14 14 13 12 11 10 9 8 8 8 8 8 8 9 10 10 11 11 12 12 12 12 11 13 16
18 18 20 20 21 21 21 20 19 17 16 16 18 17 14 14 13 12 11 10 8 7 6 6 5 5 6 6 7 7 6 7 6 5 5 4 4 3 2 2 2 2 1 1 2 3 3 4 5 5 6 7 8 8 10 12 12 11 11 12 12 13 13 12 11 10 9 9 8 8 8 8 7 7 8 9 10 10 10 11 11 12 12 12 13
18 18 20 20 20 21 21 18 16 15 14 15 18 16 13 14 13 12 12 10 9 9 7 6 6 6 6 6 6 6 6 6 5 4 4 3 3 2 1 2 2 2 2 3 3 4 4 4 4 5 6 6 6 6 8 8 7 8 8 7 8 9 10 12 12 11 10 9 8 8 8 8 8 7 7 7 8 9 9 10 11 11 12 12 12
17 18 19 20 20 22 23 19 15 14 13 14 15 13 12 12 11 11 12 10 9 9 8 7 8 8 8 8 7 6 6 6 5 4 4 3 3 3 2 2 2 3 3 4 5 4 5 5 4 4 5 6 6 5 5 4 3 5 7 4 4 6 6 8 9 10 9 9 8 7 7 7 7 6 6 6 6 7 8 9 10 11 12 12 12
14 17 18 19 22 24 26 23 19 17 14 15 16 13 12 11 11 11 12 10 9 9 9 10 13 12 11 11 10 9 9 7 4 3 2 2 3 4 3 3 3 4 5 5 6 5 5 5 4 3 3 5 6 5 3 1 2 1 4 3 3 5 3 5 7 7 7 8 7 6 6 6 6 6 6 6 6 6 7 9 10 11 12 12 12
12 15 14 18 24 25 28 27 23 22 20 19 18 15 14 14 14 13 12 12 13 13 13 14 15 14 12 12 11 10 8 6 4 3 2 3 3 4 4 4 4 6 6 6 6 6 6 5 4 4 4 5 7 8 7 5 3 1 3 3 2 2 2 7 7 6 5 6 7 7 6 6 5 6 6 7 7 6 6 8 9 10 11 11 12
16 16 13 17 25 27 28 26 22 22 20 19 17 16 17 18 17 15 15 16 16 13 13 16 16 14 12 11 10 9 7 5 4 3 4 4 4 4 5 5 6 7 7 7 7 7 7 6 5 5 6 7 8 10 10 10 10 9 9 8 4 5 4 6 5 4 5 5 6 6 6 6 5 5 5 6 7 8 8 8 9 9 9 10 11
20 20 18 20 27 29 26 22 21 21 19 18 18 17 16 17 20 19 20 22 18 13 14 17 17 15 13 11 9 8 6 5 4 4 4 4 5 6 7 7 8 8 8 8 8 8 7 6 6 6 7 7 7 9 9 9 11 13 13 13 13 11 8 3 1 2 4 4 5 4 5 5 4 4 4 6 7 7 8 8 8 9 9 10 10
21 22 22 22 25 27 23 20 21 21 20 19 19 17 16 17 21 20 21 22 18 17 19 18 17 16 14 11 8 7 6 5 5 6 5 6 7 7 8 9 9 9 9 9 9 9 8 8 8 8 8 7 7 8 8 8 9 10 11 12 14 13 11 10 7 4 1 3 4 3 3 3 2 4 3 4 6 6 7 8 8 9 10 10 10
23 21 22 21 22 23 20 19 20 20 20 19 19 19 17 19 23 22 20 17 15 19 22 20 17 15 13 11 8 7 7 7 7 7 7 7 8 8 9 9 10 9 9 10 11 10 11 11 11 12 12 11 10 9 9 8 8 7 7 8 9 9 10 10 9 8 5 3 3 2 1 2 2 2 3 2 3 4 6 7 8 9 10 10 11
23 21 20 20 21 21 20 19 19 18 19 19 20 20 18 19 23 23 21 17 17 22 22 20 18 15 13 11 9 8 8 8 8 8 7 8 9 9 9 10 10 10 11 12 12 12 14 15 15 15 15 14 13 12 11 10 9 8 7 6 7 7 7 8 9 9 7 4 3 3 3 2 2 3 3 3 3 4 5 7 8 10 11 11 13
21 21 20 20 23 22 22 21 18 18 18 20 21 19 18 20 22 22 22 21 24 25 22 21 18 14 12 10 9 8 9 8 8 8 8 9 9 9 10 10 11 11 12 12 12 13 15 16 16 16 16 15 14 14 13 12 11 11 10 10 10 9 9 9 9 8 7 6 4 3 5 5 3 4 4 4 3 4 7 8 9 11 11 13 14
Wind_Direction
148 148 147 158 166 169 175 168 156 152 151 149 148 144 144 143 143 141 140 139 139 139 139 137 135 135 133 130 127 126 124 120 117 114 111 108 103 97 91 85 78 74 76 84 87 96 101 103 104 99 97 99 104 104 103 109 110 100 95 98 92 88 86 92 95 89 83 83 78 61 72 78 72 76 72 64 57 53 65 72 70 57 26 33 33
146 147 146 158 166 169 174 167 157 153 151 150 149 146 144 143 145 143 141 141 141 140 139 137 136 135 133 132 129 128 125 121 119 115 111 105 101 95 91 86 82 79 76 82 87 95 103 105 105 103 101 104 107 105 102 101 103 99 97 98 94 91 88 103 111 99 86 81 74 60 59 62 62 64 57 50 51 50 66 78 81 74 34 37 25
140 143 146 160 167 169 173 167 157 154 150 150 152 148 144 143 145 143 141 142 142 141 141 140 139 137 133 131 130 129 125 122 120 114 109 104 100 92 87 85 83 82 84 87 85 95 107 108 105 106 106 106 106 106 106 103 104 101 94 94 97 96 95 107 113 99 86 79 75 61 45 45 49 52 50 42 50 53 60 69 71 65 31 35 27
137 140 147 161 167 168 172 167 156 153 149 152 155 151 144 142 144 142 142 143 142 141 141 142 141 137 134 132 131 130 127 124 119 114 109 104 100 92 88 86 83 82 84 85 88 102 111 111 108 107 106 106 106 108 107 105 110 103 95 96 98 97 95 96 94 86 83 83 79 71 50 51 43 37 45 37 43 50 49 52 43 41 27 26 30
138 141 150 159 163 168 172 165 156 153 151 154 155 151 144 142 144 144 145 144 142 141 141 141 140 137 134 133 132 130 129 125 121 115 108 99 96 93 91 86 83 88 89 86 92 108 114 113 111 109 107 108 108 108 104 103 109 105 100 98 93 88 85 84 83 83 82 76 71 73 70 79 53 24 34 36 36 43 38 39 31 28 30 25 29
139 143 150 156 159 167 172 164 156 154 153 155 154 150 146 146 148 147 147 145 145 142 141 141 139 137 134 133 131 130 128 124 120 112 105 100 99 96 92 91 88 90 96 94 95 108 116 116 113 112 111 110 109 107 103 103 108 106 98 90 81 77 74 75 79 83 77 62 57 70 67 69 74 26 26 37 33 44 33 26 28 22 30 33 40
140 144 149 156 158 166 172 163 157 156 155 156 151 149 150 151 151 149 148 147 146 143 142 141 140 137 135 135 133 131 127 123 118 112 108 109 109 100 93 100 94 85 92 94 98 108 114 117 116 116 114 114 112 108 104 101 102 96 85 75 68 66 64 66 71 76 73 60 51 71 73 63 80 39 27 43 35 39 34 34 33 22 26 28 55
142 146 150 156 158 168 172 162 158 157 155 153 149 150 154 155 152 150 149 147 145 143 142 142 141 137 137 136 134 132 127 122 117 116 116 115 109 95 93 104 94 90 99 100 105 112 114 118 118 117 116 115 114 109 103 95 89 82 73 67 61 60 60 63 68 71 67 67 70 67 73 64 74 51 32 50 44 35 35 40 24 12 24 19 48
145 147 151 154 159 171 172 162 159 157 154 150 150 155 158 156 152 150 149 147 147 145 144 144 141 139 139 135 132 128 124 121 120 121 119 114 102 91 95 96 86 90 107 109 112 117 119 120 119 118 117 117 114 105 97 88 81 73 66 62 58 61 64 67 72 71 63 71 79 61 76 80 73 56 37 51 50 41 45 50 13 352 13 13 32
145 146 151 153 159 171 169 162 158 155 152 151 156 159 158 154 150 150 149 149 148 146 145 143 140 139 137 134 129 125 125 124 124 120 119 115 103 101 104 102 93 94 108 115 117 121 123 121 120 120 121 119 109 98 89 82 75 69 62 58 58 65 70 73 77 77 75 87 84 70 79 87 80 57 43 53 52 47 52 63 64 16 14 14 21
145 146 150 153 161 168 166 162 155 153 153 156 160 159 156 152 150 150 150 149 147 145 143 141 140 138 136 134 130 129 130 127 125 120 120 118 109 112 115 113 104 103 113 118 121 125 125 124 127 127 123 114 102 95 87 81 74 68 62 60 62 67 74 74 76 82 93 90 86 86 67 67 75 52 44 54 52 49 50 52 52 41 24 15 12
147 146 148 152 162 166 166 162 153 154 158 160 160 158 155 152 151 152 150 148 147 145 143 141 139 139 137 135 134 134 135 132 130 128 125 119 116 122 119 113 107 108 119 125 125 130 132 132 137 133 121 111 103 98 89 84 77 72 68 66 66 67 75 75 74 88 103 90 76 88 53 54 69 39 39 52 49 45 42 38 34 26 16 10 5
148 147 149 152 160 165 165 160 153 158 162 160 160 159 156 152 152 152 152 149 147 147 144 141 139 139 137 136 138 139 143 144 143 144 146 136 124 125 120 112 108 107 117 130 131 136 144 142 138 130 122 118 110 104 95 90 84 79 75 72 70 70 73 70 73 89 89 85 65 75 64 60 55 24 33 42 40 38 32 28 22 13 8 4 2
149 147 150 153 159 164 165 158 156 161 162 161 161 160 156 153 152 153 153 150 149 148 145 142 141 141 139 143 146 148 152 152 153 152 158 148 128 124 122 115 111 109 116 127 131 138 146 142 134 132 132 128 118 110 101 95 90 85 79 75 72 73 74 66 67 83 78 72 59 48 56 58 16 12 25 27 26 25 19 15 11 5 2 360 359
149 148 151 152 156 162 163 159 159 162 163 164 163 160 157 155 154 155 153 150 151 148 146 145 146 146 145 150 147 143 137 132 132 131 132 135 129 127 125 120 112 109 114 120 126 131 138 140 141 144 142 136 127 116 105 97 94 89 80 73 69 72 77 74 59 69 69 47 43 13 20 24 351 5 13 11 9 7 4 1 358 356 355 355 354
147 149 151 153 156 161 163 161 162 164 166 167 164 162 160 158 156 155 153 153 152 148 148 148 151 150 144 141 132 124 119 114 114 118 122 127 130 130 129 126 118 110 109 113 124 132 141 149 152 153 149 145 132 117 109 97 96 97 86 67 59 64 72 73 52 50 52 26 19 0 354 334 338 353 357 355 353 348 346 346 347 348 349 348 346
148 151 154 157 159 162 164 164 166 167 168 167 165 164 162 160 157 156 155 153 150 150 152 151 150 143 137 132 123 118 112 104 103 108 116 123 129 131 133 131 126 119 114 114 125 139 150 158 160 162 160 155 146 129 117 95 98 99 93 60 45 46 57 64 52 37 38 18 2 348 351 334 332 342 343 341 340 337 336 332 331 333 335 336 336
151 156 159 162 162 164 165 166 167 168 170 169 167 166 164 160 159 158 154 151 150 152 153 148 143 138 136 131 125 120 109 99 95 99 108 116 123 130 136 134 131 127 122 121 127 141 155 167 170 171 170 167 171 172 185 122 92 50 30 21 26 29 45 50 39 21 27 12 351 345 350 337 334 338 330 329 329 327 326 321 315 318 319 315 316
156 161 165 166 166 166 166 167 168 169 170 171 169 166 164 161 160 158 152 151 152 152 149 143 140 138 138 135 131 121 111 101 94 96 99 104 111 123 132 133 134 130 127 127 127 138 151 169 177 180 182 183 189 202 238 268 276 296 313 335 0 12 26 26 358 347 0 358 348 349 343 331 332 332 327 325 322 321 322 319 314 310 306 301 301
163 167 170 171 170 169 168 169 170 170 172 173 170 164 165 162 160 157 152 152 151 149 146 140 136 136 139 137 125 117 114 100 90 90 87 92 106 112 121 126 130 131 132 133 131 136 144 160 174 185 189 195 200 211 235 251 265 278 303 313 339 358 359 348 332 335 340 345 355 352 330 326 330 329 331 330 323 321 319 321 317 302 300 302 300
170 173 174 174 174 171 170 171 171 172 173 173 166 161 164 163 160 157 153 151 149 146 142 136 132 133 134 130 121 123 127 104 95 96 81 84 100 100 106 113 118 123 128 134 138 139 141 151 162 177 185 195 202 210 231 245 253 267 291 302 321 329 326 321 319 328 331 345 4 341 323 326 329 330 335 339 336 328 324 321 309 298 301 305 302
173 177 177 176 176 173 173 172 171 172 173 170 162 159 162 163 161 159 155 149 145 143 140 138 137 136 126 122 128 136 134 125 125 121 108 107 101 98 102 105 107 108 110 117 132 143 146 151 156 164 174 185 188 191 211 226 234 260 284 292 299 300 311 317 316 325 331 359 4 330 323 330 327 329 332 339 346 337 327 311 301 302 303 303 304
177 180 178 177 177 173 174 174 172 172 173 168 161 160 161 162 160 157 153 147 146 148 148 149 149 144 136 134 144 146 144 142 137 132 137 136 113 103 104 101 100 100 101 98 99 122 138 145 150 146 145 161 172 183 189 187 196 239 283 283 294 308 317 313 317 326 344 16 3 327 326 332 326 326 323 326 336 331 315 303 304 306 301 303 308
180 181 177 176 177 174 174 174 173 173 172 168 164 162 161 162 159 155 152 148 152 156 154 153 153 151 151 152 151 155 157 147 137 137 140 139 120 106 100 92 94 97 100 96 92 96 103 119 128 124 135 168 179 187 185 171 182 232 285 306 320 325 319 323 329 334 6 20 355 331 331 329 326 324 324 330 337 338 327 315 312 305 304 309 311
179 179 175 174 176 175 173 174 174 174 172 168 166 163 161 161 158 155 151 151 157 159 155 152 157 159 159 160 156 161 164 149 140 139 133 138 132 116 105 103 112 108 104 109 114 103 105 134 135 128 164 186 171 173 240 273 301 310 324 329 333 332 326 337 342 348 18 25 359 345 341 333 333 329 335 348 351 354 349 342 335 326 329 330 323
178 178 174 172 174 174 173 174 174 174 174 168 165 163 162 162 160 155 150 155 160 160 158 156 162 164 163 166 165 169 163 149 137 131 130 129 125 122 123 132 140 130 118 124 127 120 127 148 147 142 158 150 124 114 345 335 338 340 349 348 347 346 338 346 0 0 26 39 26 10 5 1 2 359 5 13 11 13 9 6 5 360 357 353 346
176 172 170 170 172 173 172 173 173 174 173 168 165 163 164 164 159 155 155 162 163 162 161 161 166 166 165 168 169 170 156 144 132 127 124 107 106 118 129 131 130 127 124 121 120 123 124 126 135 134 131 115 96 72 49 22 12 4 4 4 4 4 356 356 11 19 42 48 38 33 34 31 37 38 37 36 29 29 28 23 22 19 13 7 1
170 166 166 169 171 172 170 172 173 173 171 168 167 165 165 163 157 156 162 166 164 165 164 162 167 168 167 167 165 164 150 139 132 125 120 112 108 106 120 118 114 120 116 113 114 117 116 115 122 117 111 102 69 42 40 37 32 21 18 19 16 14 11 9 20 40 58 54 44 45 54 53 53 61 63 57 49 47 46 40 40 39 30 25 23
168 167 168 170 172 171 169 170 171 173 173 169 168 166 164 163 159 160 165 169 169 167 163 161 168 171 169 164 157 149 137 132 130 128 122 112 100 90 98 101 99 102 97 98 101 101 107 106 105 103 101 92 68 49 38 44 46 35 29 30 31 29 29 30 30 48 63 63 51 38 48 66 61 63 76 74 63 54 55 51 50 52 44 37 35
167 167 170 172 173 172 170 170 170 173 173 170 168 165 164 164 162 164 167 170 172 167 161 165 171 170 168 157 144 134 125 130 129 125 118 106 100 93 93 98 90 80 77 81 82 82 90 91 86 77 75 80 73 59 43 51 54 45 40 43 49 50 50 49 46 55 63 67 62 32 24 54 66 63 69 67 53 43 51 50 45 55 52 43 36
168 168 171 172 173 173 173 172 169 169 171 170 168 164 165 166 165 166 169 171 171 168 165 168 170 169 164 146 135 130 125 124 116 115 117 112 111 102 90 90 80 69 68 68 69 72 76 76 72 62 58 64 64 55 45 49 54 53 56 59 63 64 66 67 63 65 66 65 69 48 27 34 49 57 60 52 45 44 50 51 37 36 42 38 35
170 173 173 172 175 176 175 173 168 166 168 170 166 165 168 167 167 169 172 173 170 170 168 164 168 168 151 133 131 138 135 121 113 121 121 118 114 102 87 80 76 73 70 66 63 66 70 73 73 66 61 64 62 58 57 55 53 61 69 72 76 76 76 77 73 71 71 67 66 64 44 30 30 36 46 53 50 44 43 44 41 37 36 33 41
172 176 176 173 176 177 176 174 169 166 168 170 167 167 171 169 169 170 172 174 173 171 167 164 169 166 145 135 145 151 144 131 123 123 120 117 111 102 92 85 82 78 72 66 59 55 59 63 66 67 64 65 67 68 68 65 67 76 81 81 80 79 78 77 75 72 71 70 64 60 56 43 28 21 25 34 40 39 33 30 28 26 28 26 31
178 176 176 175 176 175 176 174 171 170 168 169 169 168 171 170 169 171 174 175 174 170 166 168 173 165 147 145 160 159 147 140 132 127 123 116 108 100 93 90 87 81 72 62 55 49 44 36 33 51 52 48 65 69 71 80 90 92 86 83 81 78 78 76 74 73 69 67 64 58 52 47 40 29 22 17 19 24 21 18 16 14 14 16 19
181 175 178 176 175 174 173 174 173 172 170 171 171 169 169 169 168 171 175 172 171 172 171 178 182 169 155 156 163 155 143 139 136 130 123 116 108 97 90 87 81 77 70 58 54 47 38 27 13 17 38 58 83 83 88 99 98 92 87 84 83 81 79 76 72 71 68 64 60 56 51 45 41 38 32 22 14 14 15 13 10 8 7 6 12
182 174 178 176 174 174 173 174 175 173 172 174 172 167 166 167 169 170 171 168 168 175 178 187 189 171 156 159 157 147 142 141 138 130 122 116 108 95 86 83 73 71 66 54 45 31 24 29 23 20 37 92 115 107 103 104 97 90 88 86 83 82 79 75 72 67 65 62 57 52 49 45 41 38 34 30 21 12 13 17 14 9 7 4 5
184 176 177 176 173 173 172 174 177 175 173 174 170 165 165 167 169 167 165 167 172 180 185 188 184 170 161 161 156 149 147 145 139 132 125 117 109 99 89 80 69 62 57 48 36 20 12 17 28 34 47 117 122 116 112 106 99 93 89 85 82 80 76 72 69 66 62 60 56 52 49 46 43 42 37 33 30 20 14 19 20 13 8 7 5
186 181 177 174 172 172 172 173 175 174 172 172 169 165 165 166 166 166 167 171 178 183 184 183 174 166 167 160 155 152 146 144 142 132 123 115 108 106 96 81 66 52 44 38 27 14 16 25 33 47 64 111 123 121 118 109 103 97 88 82 80 76 73 71 67 65 64 61 59 55 53 50 46 45 43 36 33 30 25 22 21 14 7 11 13
187 183 177 173 172 171 169 170 173 171 168 171 170 166 163 162 162 164 167 170 174 177 177 176 169 165 167 160 156 152 144 144 143 132 123 119 113 108 97 73 51 28 14 14 6 357 30 58 69 69 78 101 117 121 119 113 106 98 89 82 77 75 73 72 71 69 67 65 61 58 54 51 48 47 45 41 35 33 31 26 22 17 8 12 18
188 184 178 173 171 171 169 168 169 167 167 171 170 164 160 161 161 160 162 165 162 166 172 166 158 163 163 157 155 148 145 148 145 138 129 124 123 112 95 63 31 10 359 4 6 20 68 81 85 83 87 100 112 120 123 119 110 101 94 85 78 78 77 74 73 71 68 65 61 57 54 49 48 47 46 44 40 34 31 27 22 19 12 8 12
188 184 177 171 171 171 166 163 166 169 169 170 170 168 164 162 161 159 160 161 160 162 167 157 149 161 159 153 154 152 152 149 142 133 126 124 125 108 80 49 27 28 50 79 95 95 94 93 90 85 91 106 115 126 134 131 122 115 109 98 88 80 77 76 72 70 68 66 63 60 55 51 48 46 47 44 41 37 31 28 23 20 15 10 7
187 182 173 167 170 170 162 159 167 175 174 170 169 168 165 164 163 163 161 156 159 160 157 156 157 157 155 151 149 149 151 152 149 144 144 141 120 95 64 57 56 66 74 89 99 99 94 89 91 85 86 104 117 133 151 160 156 146 140 126 112 97 87 81 73 69 68 66 66 64 58 54 50 46 45 42 39 36 31 27 23 19 16 12 9
186 178 170 164 166 169 168 171 175 177 177 171 168 168 169 168 163 165 164 155 155 158 153 160 169 161 160 165 160 160 165 163 166 169 179 176 117 96 87 75 78 88 87 94 100 101 96 87 88 90 93 105 108 121 164 207 228 168 173 175 146 142 127 102 81 71 69 69 70 66 61 54 50 47 45 42 37 34 31 28 23 20 17 12 9
183 171 167 159 157 164 174 184 182 176 178 174 171 170 166 161 156 161 166 162 159 158 153 160 172 171 172 179 176 176 178 173 172 177 184 161 110 97 91 86 90 95 96 99 99 97 95 89 82 86 101 109 100 91 112 225 309 200 208 232 177 177 163 122 101 82 75 73 70 67 64 56 51 49 46 42 36 34 30 27 23 19 16 12 6
156 157 163 150 150 162 178 187 184 180 183 177 170 165 159 154 151 147 149 161 162 156 153 160 169 170 169 175 175 176 182 187 188 162 125 112 104 101 98 97 97 97 96 94 97 95 91 92 88 81 82 93 98 88 76 75 76 59 349 343 208 202 108 131 125 91 85 80 70 66 61 57 54 49 47 43 35 32 25 19 17 12 10 8 3
131 153 172 154 154 166 177 185 184 181 182 177 170 162 157 157 159 157 155 161 160 154 157 161 163 164 166 170 173 174 177 184 180 145 117 111 112 113 106 100 100 100 98 95 97 97 93 91 89 87 86 85 94 92 79 74 78 72 52 46 48 33 67 153 168 116 112 100 78 70 60 55 52 47 45 41 34 31 23 14 10 5 2 0 357
141 165 177 165 164 169 174 181 182 177 173 173 173 162 153 162 175 178 172 167 162 157 165 165 165 170 172 170 171 172 166 164 159 139 127 125 121 116 110 105 104 101 98 98 97 97 101 100 98 100 97 89 90 93 86 78 72 65 60 64 63 53 52 68 71 134 143 119 95 89 76 61 48 45 38 33 33 28 20 12 5 1 357 353 352
152 165 167 164 167 172 176 180 178 174 174 175 174 165 156 169 181 179 172 172 168 165 171 173 174 175 171 166 167 164 149 141 133 123 120 119 116 112 110 107 102 97 95 98 98 99 103 104 107 109 100 89 88 93 91 86 82 71 63 64 65 61 58 52 36 17 38 117 114 118 110 102 67 49 35 23 24 19 14 7 359 357 353 349 348
163 164 163 164 167 171 179 180 175 175 177 174 171 170 165 174 182 176 171 174 171 168 170 176 179 173 167 164 163 153 139 133 127 121 116 113 112 111 111 107 101 98 98 100 103 104 105 105 107 106 99 91 85 89 91 88 88 82 71 67 67 67 65 58 46 37 33 54 84 85 106 165 156 61 30 357 353 354 1 359 355 355 351 347 345
170 166 165 170 167 167 175 180 175 173 173 170 170 173 173 176 178 177 176 175 171 168 166 171 176 168 160 159 152 143 135 131 125 121 118 114 112 111 110 108 104 103 104 105 106 106 109 110 107 103 98 93 88 87 89 88 85 79 74 73 70 67 64 57 46 43 40 33 48 50 35 53 119 71 33 0 345 343 350 353 354 353 349 346 342
168 166 168 171 165 165 173 176 174 173 172 173 173 172 173 173 176 184 187 180 176 172 167 169 171 162 156 153 147 142 135 132 130 126 123 117 114 113 113 112 109 108 107 106 106 106 108 108 105 100 94 92 91 90 88 88 87 81 76 73 69 63 59 54 42 36 35 26 19 29 30 24 37 59 37 7 0 0 357 356 356 353 348 344 341